sat.trackr.live / text

‹ back to catalog

STARLINK-4127

NORAD 53258 · 2022-086S

PAYLOAD ACTIVE UNKNOWN

§ Identity

Operator
Country
US
Launch date
2022-07-24
Launch site
AFETR
Launch vehicle
Mass (kg)
RCS (m²)

Purposes: comms

External: N2YO · Heavens-Above · Gunter

§ Orbital elements

Epoch: 2026-05-25T04:40:33.076992Z

Period
95.44 min
Inclination
53.2129°
Eccentricity
0.0001136
Mean motion
15.08838283 rev/d
Perigee alt
539.0 km
Apogee alt
540.5 km
Semi-major
6,917.9 km
B*
-2.9723e-5
RAAN
210.6748°
Arg perigee
87.8507°
Mean anomaly
272.2615°
Rev number
21,261

§ Raw data

STARLINK-41271 53258U 22086S   26145.19482728 -.00000761  00000+0 -29723-4 0  99922 53258  53.2129 210.6748 0001136  87.8507 272.2615 15.08838283212614

JSON: /api/v1/satellites/53258 · /tle

For live sub-satellite position, see the globe view (requires WebGL).

§ Visibility from observer

Set your observer location to see the next 7 days of passes ≥ 10°. The values pass through the URL so the page stays shareable.

No JS? Fill the form by hand. The geolocation button needs JavaScript.